sat.trackr.live / text

‹ back to catalog

STARLINK-30591

NORAD 58088 · 2023-160P

PAYLOAD ACTIVE UNKNOWN

§ Identity

Operator
Country
US
Launch date
2023-10-18
Launch site
AFETR
Launch vehicle
Mass (kg)
RCS (m²)

Purposes: comms

External: N2YO · Heavens-Above · Gunter

§ Orbital elements

Epoch: 2026-05-24T23:00:02.595168Z

Period
94.27 min
Inclination
43.0017°
Eccentricity
0.0001069
Mean motion
15.27559233 rev/d
Perigee alt
482.4 km
Apogee alt
483.8 km
Semi-major
6,861.2 km
B*
-9.0059e-5
RAAN
6.8605°
Arg perigee
305.6218°
Mean anomaly
54.4534°
Rev number
14,461

§ Raw data

STARLINK-305911 58088U 23160P   26144.95836337 -.00002738  00000+0 -90059-4 0  99902 58088  43.0017   6.8605 0001069 305.6218  54.4534 15.27559233144615

JSON: /api/v1/satellites/58088 · /tle

For live sub-satellite position, see the globe view (requires WebGL).

§ Visibility from observer

Set your observer location to see the next 7 days of passes ≥ 10°. The values pass through the URL so the page stays shareable.

No JS? Fill the form by hand. The geolocation button needs JavaScript.